Location: Bazugues
(43.4465°N, 0.3432°E)
Time: 15:19:21
(UTC+00:00)

Cosmos 2366 rocket - Visible Passes

Search period start: 19 April 2026 00:00
Search period end: 29 April 2026 00:00
Orbit: 953 x 997 km, 82.9° (Epoch: 19 April)

Date Brightness Start Highest point End Pass type
(mag) Time Alt. Az. Time Alt. Az. Time Alt. Az.
19 Apr 4.0 19:29:30 10° S 19:35:32 62° E 19:41:35 10° NNE visible
19 Apr 6.3 21:16:51 10° WSW 21:21:24 21° WNW 21:25:58 10° NNW visible
20 Apr 4.2 19:54:37 10° SSW 20:00:45 76° W 20:06:55 10° N visible
20 Apr 6.8 21:45:07 10° W 21:47:15 12° WNW 21:49:23 10° NW visible
21 Apr 5.2 20:20:22 10° SSW 20:26:09 43° WNW 20:31:58 10° N visible
22 Apr 6.2 20:46:49 10° WSW 20:51:43 25° WNW 20:56:40 10° NNW visible
23 Apr 4.1 19:25:03 10° S 19:31:12 88° W 19:37:22 10° N visible
23 Apr 6.8 21:14:26 10° W 21:17:31 14° WNW 21:20:36 10° NNW visible
24 Apr 5.0 19:50:37 10° SSW 19:56:32 50° WNW 20:02:30 10° N visible
25 Apr 6.1 20:16:51 10° SW 20:22:03 29° WNW 20:27:19 10° NNW visible
26 Apr 6.8 20:44:02 10° WSW 20:47:47 16° WNW 20:51:33 10° NNW visible
27 Apr 7.6 04:08:03 10° NE 04:09:38 11° ENE 04:11:13 10° ENE visible
27 Apr 4.7 19:20:55 10° SSW 19:26:56 59° W 19:33:00 10° N visible
28 Apr 5.9 19:46:57 10° SW 19:52:24 33° WNW 19:57:54 10° N visible
